Probability
0 0 0 0 0 0 0 0 0 0 0 0 0 0 0 0 0 0 0 0 0 0 0 0 0 0 0 1 2 2 2 3 2 1 0 0 0 0 0 0 0 0 0 0
0 0 0 0 0 0 0 0 0 0 0 0 0 0 0 0 0 0 0 0 0 0 0 0 0 0 0 1 1 1 1 2 2 1 0 0 0 0 0 0 0 0 0 0
0 0 0 0 0 0 0 0 0 0 0 0 0 0 0 0 0 0 0 0 0 0 0 0 0 0 0 0 0 0 0 1 1 1 1 0 0 0 0 0 0 0 0 0
0 0 0 0 0 0 0 0 0 0 0 0 0 0 0 0 0 0 0 0 0 0 0 0 0 0 0 0 0 0 0 0 1 1 1 0 0 0 0 0 0 0 0 0
0 0 0 0 0 0 0 0 0 0 0 0 0 0 0 0 0 0 0 0 0 0 0 0 0 0 0 0 0 0 0 0 0 0 0 0 0 0 0 0 0 0 0 0
0 0 0 0 0 0 0 0 0 0 0 0 0 0 0 0 0 0 0 0 0 0 0 0 0 0 0 0 0 0 0 0 0 0 0 0 0 0 0 0 0 0 0 0
0 0 0 0 0 0 0 0 0 0 0 0 0 0 0 0 0 0 0 0 0 0 0 0 0 0 0 0 0 0 0 0 0 0 0 0 0 0 0 0 0 0 0 0
0 0 0 0 0 0 0 0 0 0 0 0 0 0 0 0 0 0 0 0 0 0 0 0 0 0 0 0 0 0 0 0 0 0 0 0 0 0 0 0 0 0 0 0
0 0 0 0 0 0 0 0 0 0 0 0 0 0 0 0 0 0 0 0 0 0 0 0 0 0 0 0 0 0 0 0 0 0 0 0 0 0 0 0 0 0 0 0
0 0 0 0 0 0 0 0 0 0 0 0 0 0 0 0 0 0 0 0 0 0 0 0 0 0 0 0 0 0 0 0 0 0 0 0 0 0 0 0 0 0 0 0
0 0 0 0 0 0 0 0 0 0 0 0 0 0 0 0 0 0 0 0 0 0 0 0 0 0 0 0 0 0 0 0 0 0 0 0 0 0 0 0 0 0 0 0
0 0 0 0 0 0 0 0 0 0 0 0 0 0 0 0 0 0 0 0 0 0 0 0 0 0 0 0 0 0 0 0 0 0 0 0 0 0 0 0 0 0 0 0
0 0 0 0 0 0 0 0 0 0 0 0 0 0 0 0 0 0 0 0 0 0 0 0 0 0 0 0 0 0 0 0 0 0 0 0 0 0 0 0 0 0 0 0
0 0 0 0 0 0 0 0 0 0 0 0 0 0 0 0 0 0 0 0 0 0 0 0 0 0 0 0 0 0 0 0 0 0 0 0 0 0 0 0 0 0 0 0
0 0 0 0 0 0 0 0 0 0 0 0 0 0 0 0 0 0 0 0 0 0 0 0 0 0 0 0 0 0 0 0 0 0 0 0 0 0 0 0 0 0 0 0
0 0 0 0 0 0 0 0 0 0 0 0 0 0 0 0 0 0 0 0 0 0 0 0 0 0 0 0 0 0 0 0 0 0 0 0 0 0 0 0 0 0 0 0
0 0 0 0 0 0 0 0 0 0 0 0 0 0 0 0 0 0 0 0 0 0 0 0 0 0 0 0 0 0 0 0 0 0 0 0 0 0 0 0 0 0 0 0
0 0 0 0 0 0 0 0 0 0 0 0 0 0 0 0 0 0 0 0 0 0 0 0 0 0 0 0 0 0 0 0 0 0 0 0 0 0 0 0 0 0 0 0
0 0 0 0 0 0 0 0 0 0 0 0 0 0 0 0 0 0 0 0 0 0 0 0 0 0 0 0 0 0 0 0 0 0 0 0 0 0 0 0 0 0 0 0
0 0 0 0 0 0 0 0 0 0 0 0 0 0 0 0 0 0 0 0 0 0 0 0 0 0 0 0 0 0 0 0 0 0 0 0 0 0 0 0 0 0 0 0
0 0 0 0 0 0 0 0 0 0 0 0 0 0 0 0 0 0 0 0 0 0 0 0 0 0 0 0 0 0 0 0 0 0 0 0 0 0 0 0 0 0 0 0
0 0 0 0 0 0 0 0 0 0 0 0 0 0 0 0 0 0 0 0 0 0 0 0 0 0 0 0 0 0 0 0 0 0 0 0 0 0 0 0 0 0 0 0
0 0 0 0 0 0 0 0 0 0 0 0 0 0 0 0 0 0 0 0 0 0 0 0 0 0 0 0 0 0 0 0 0 0 0 0 0 0 0 0 0 0 0 0
0 0 0 0 0 0 0 0 0 0 0 0 0 0 0 0 0 0 0 0 0 0 0 0 0 0 0 0 0 0 0 0 0 0 0 0 0 0 0 0 0 0 0 0
0 0 0 0 0 0 0 0 0 0 0 0 0 0 0 0 0 0 0 0 0 0 0 0 0 0 0 0 0 0 0 0 0 0 0 0 0 0 0 0 0 0 0 0
0 0 0 0 0 0 0 0 0 0 0 0 0 0 0 0 0 0 0 0 0 0 0 0 0 0 0 0 0 0 0 0 0 0 0 0 0 0 0 0 0 0 0 0
0 0 0 0 0 0 0 0 0 0 0 0 0 0 0 0 0 0 0 0 0 0 0 0 0 0 0 0 0 0 0 0 0 0 0 0 0 0 0 0 0 0 0 0
Wind_Speed
6 7 6 7 11 11 7 5 5 5 6 5 7 7 8 10 12 14 14 14 13 11 9 8 8 6 5 5 6 6 6 6 6 5 4 3 2 1 2 3 4 4 5 6
4 6 6 6 8 5 7 6 7 8 6 5 6 7 9 10 12 12 13 14 14 14 13 11 10 9 7 7 6 6 7 7 6 6 5 4 3 2 1 1 2 4 5 6
4 6 5 4 5 7 9 9 6 5 3 6 8 11 7 7 10 11 11 12 13 13 13 12 11 10 9 8 6 6 7 7 7 7 7 6 5 3 2 1 1 3 4 5
2 3 1 1 5 11 12 10 8 5 4 6 7 8 4 5 7 10 11 11 11 11 12 12 12 12 11 8 5 6 6 7 7 8 8 7 6 5 4 2 2 2 2 3
4 3 4 2 3 1 3 4 5 5 6 8 8 6 4 4 6 7 8 8 7 7 8 9 11 13 12 9 7 5 6 7 8 9 9 8 8 7 5 4 3 2 3 3
4 4 5 2 8 9 3 4 5 6 7 8 8 6 6 9 11 11 10 8 8 7 7 7 9 11 11 10 8 7 7 7 7 8 10 10 10 8 5 5 5 4 3 3
2 3 1 5 10 8 2 3 7 7 7 8 6 7 10 12 12 11 11 11 9 8 7 7 7 7 9 9 10 10 9 7 6 7 9 10 9 7 7 6 6 5 5 3
2 1 2 7 6 5 2 5 6 8 9 10 11 12 13 13 12 12 12 11 10 8 7 7 6 5 7 9 9 10 9 8 6 7 8 9 9 9 8 9 8 6 5 4
2 1 1 2 3 1 3 6 8 8 11 12 13 14 14 13 12 12 12 11 9 9 9 8 6 5 7 9 8 9 10 9 7 7 8 8 10 10 9 8 8 7 6 5
4 3 1 1 1 3 5 8 10 12 14 14 15 15 15 13 12 11 10 10 9 9 9 9 8 7 8 8 8 8 9 10 8 6 7 8 8 9 9 9 9 8 8 7
4 3 4 4 5 7 9 11 13 14 14 14 14 15 15 13 11 10 9 8 8 8 9 10 9 8 8 7 7 7 8 9 8 6 7 8 8 9 11 10 12 11 9 9
1 3 4 8 10 11 13 14 15 16 15 13 13 14 13 11 9 8 9 8 8 9 9 10 9 9 9 7 7 6 7 8 6 5 5 6 7 5 6 7 14 15 13 11
4 6 7 11 12 13 13 15 15 14 13 13 11 10 10 9 8 9 9 10 10 10 10 10 10 9 9 8 7 7 7 7 7 5 5 6 7 9 7 3 7 12 15 16
6 6 8 10 12 13 14 14 13 12 12 11 11 10 10 10 10 10 11 10 10 10 11 10 10 10 10 9 8 8 8 8 8 5 5 6 7 8 9 9 8 5 6 13
8 7 10 12 11 12 12 12 12 12 12 11 10 10 11 12 12 12 11 11 11 10 11 11 11 12 10 9 9 8 7 5 5 5 5 5 6 8 8 10 9 7 4 4
9 10 11 12 13 13 13 13 13 12 12 12 12 12 12 12 12 12 12 11 11 12 12 11 12 12 11 9 9 7 6 10 8 5 5 5 6 7 8 9 9 9 8 7
8 10 10 12 13 13 12 13 12 13 13 14 14 14 13 12 12 12 12 11 11 12 11 11 12 12 10 9 8 6 5 7 10 6 5 5 6 7 9 10 10 10 9 10
9 10 12 14 14 15 15 14 14 15 15 15 15 14 13 13 14 14 13 12 12 12 12 11 11 11 10 10 7 6 5 5 5 4 4 4 5 7 8 10 11 11 8 9
12 12 13 14 14 15 14 15 16 14 14 15 15 15 14 14 14 14 13 12 13 13 12 10 14 12 10 10 10 5 5 5 5 4 3 5 5 6 8 9 10 10 10 10
12 13 14 15 15 15 15 15 15 15 14 14 15 15 15 14 13 14 13 13 12 11 11 11 11 9 9 9 10 4 5 5 5 4 4 4 5 5 7 9 11 11 11 11
13 14 16 16 15 15 14 15 15 15 15 14 14 15 15 14 14 13 13 13 12 11 10 12 9 8 7 7 7 5 5 5 4 4 5 4 5 5 6 8 10 11 11 11
13 14 15 15 15 15 13 13 13 15 16 15 16 16 16 16 15 14 13 12 11 12 9 7 7 8 9 8 4 5 5 4 4 4 4 4 4 5 6 8 9 10 11 11
13 13 13 14 14 14 15 14 14 15 16 17 17 17 17 16 13 13 13 9 9 11 9 8 9 12 12 7 4 5 5 4 4 4 4 4 4 5 6 8 9 9 10 10
12 12 12 12 12 13 15 16 15 14 16 17 16 18 17 14 12 10 10 12 13 13 9 9 12 13 11 5 5 5 4 4 4 3 3 3 4 4 5 6 8 9 9 11
11 11 11 12 13 12 14 15 16 16 16 15 18 18 14 11 12 11 10 11 12 11 8 8 10 11 7 5 5 5 4 4 4 3 3 3 3 3 4 5 7 8 8 9
11 10 10 10 11 11 12 13 14 14 15 15 15 14 13 11 11 9 8 9 11 9 7 5 5 5 4 4 5 5 4 4 4 3 3 3 3 3 4 5 7 7 7 7
10 9 8 10 10 11 12 13 14 15 15 15 17 16 14 13 10 9 8 7 6 5 4 3 3 3 3 3 3 3 3 3 3 2 2 2 2 3 4 5 5 5 5 6
Wind_Direction
224 246 264 286 297 296 287 246 184 127 91 18 358 2 11 18 17 14 8 4 359 349 338 328 316 293 260 234 214 196 185 187 193 192 192 192 206 240 300 323 351 8 23 31
284 277 289 305 326 354 27 35 87 97 64 350 341 9 20 21 17 11 1 356 353 349 344 336 322 308 286 256 229 204 195 196 189 182 181 186 193 203 248 332 7 29 42 46
271 298 346 1 4 78 65 37 64 67 12 341 359 0 4 12 12 3 353 348 346 343 339 333 328 317 296 274 248 217 206 198 187 181 183 188 186 180 189 193 69 62 55 62
198 7 325 176 81 108 97 63 56 59 13 358 342 317 317 19 1 342 336 335 334 333 334 333 330 327 315 297 269 238 220 203 190 183 186 184 180 184 188 178 149 116 93 84
144 192 235 138 41 323 148 82 25 19 355 343 327 313 286 341 333 312 305 302 299 304 310 322 333 331 328 319 302 269 239 218 200 189 185 181 185 188 183 170 161 150 137 124
155 194 229 276 334 326 110 114 13 2 343 334 341 336 297 313 315 310 307 302 298 301 308 318 328 336 333 329 324 310 287 257 220 195 187 186 188 184 176 169 167 158 152 147
217 227 138 329 327 345 32 303 327 332 324 320 307 275 282 296 298 295 294 293 292 294 298 301 310 332 332 329 321 310 307 293 253 213 198 190 184 178 172 167 161 159 156 156
10 322 303 341 21 48 288 289 307 311 305 298 289 287 291 293 292 293 295 292 290 288 286 287 294 306 314 310 310 313 311 299 271 233 212 195 181 178 174 169 164 162 156 155
97 130 160 52 90 231 278 291 292 290 290 289 289 289 291 289 289 291 292 291 288 285 287 286 283 281 290 294 301 310 313 302 279 245 220 193 182 179 174 172 171 170 168 169
87 82 83 71 325 285 279 273 277 279 282 284 284 286 288 289 291 293 291 290 290 291 289 289 286 278 273 284 289 299 305 302 290 257 225 199 185 179 177 179 177 176 176 174
77 355 327 303 291 281 282 283 284 285 285 286 287 291 293 295 294 293 295 295 293 289 286 286 287 283 277 282 284 289 299 297 286 264 233 206 192 187 183 188 184 179 181 175
281 265 264 277 282 288 292 292 294 296 296 294 294 296 298 296 292 292 296 297 297 293 288 287 287 284 282 279 273 277 291 295 282 271 245 214 190 177 187 182 184 183 178 173
235 256 256 268 278 284 287 290 293 294 295 299 299 294 294 292 291 294 296 299 298 294 291 289 286 284 284 278 270 268 275 289 283 269 251 214 190 178 171 155 175 182 183 180
262 273 280 280 284 289 291 292 294 295 294 292 292 293 293 292 292 293 292 290 290 289 290 289 285 282 280 273 266 264 266 279 281 265 260 220 193 183 176 172 169 172 187 190
282 280 277 285 291 293 294 297 300 298 295 293 287 287 288 289 289 288 286 287 288 287 287 290 289 285 282 273 266 264 263 263 273 270 257 226 192 180 176 175 172 161 140 157
291 295 293 296 298 299 301 301 299 295 293 291 289 285 283 282 282 284 286 289 289 288 288 288 286 285 284 273 265 263 258 267 272 268 257 226 191 180 177 173 170 168 170 160
307 305 304 304 303 300 297 295 292 291 291 292 290 287 286 284 283 285 286 285 281 281 281 280 283 285 283 274 262 258 252 264 271 262 250 221 195 183 179 174 175 176 176 172
293 291 293 295 299 301 301 297 294 294 294 293 294 294 291 288 287 288 287 287 285 284 280 276 278 283 282 276 263 253 245 245 251 254 252 225 199 187 183 178 177 174 166 166
294 291 291 292 293 294 296 298 299 297 296 298 300 297 293 290 289 289 289 288 288 288 284 277 281 285 283 275 268 252 243 247 255 258 255 229 206 189 184 179 176 174 168 165
296 295 296 297 298 299 302 303 303 303 303 304 302 300 297 295 294 294 292 288 281 276 276 278 281 280 280 275 269 249 239 242 249 253 248 225 205 190 185 181 176 174 171 173
302 304 306 307 308 308 307 306 307 306 308 307 304 301 299 298 297 295 292 290 286 279 277 276 274 271 274 268 260 246 238 235 235 244 244 225 204 190 186 180 176 176 176 177
307 310 312 314 314 313 311 308 307 310 311 308 305 303 303 302 299 294 283 279 282 281 279 273 269 268 276 273 251 246 243 229 224 237 241 220 203 194 187 180 176 175 176 179
311 312 312 313 314 313 313 313 314 313 311 310 309 307 304 299 298 296 294 286 282 280 278 272 268 271 277 270 249 247 245 233 227 238 239 223 204 193 184 178 174 172 172 177
315 314 313 313 316 318 317 318 315 313 310 308 306 306 305 302 298 288 284 286 283 281 278 271 267 267 266 253 242 239 234 227 225 242 244 229 205 186 176 169 166 167 170 175
314 314 316 322 325 322 318 317 317 316 314 313 310 309 306 299 297 298 293 289 287 284 281 274 266 263 253 235 229 229 222 215 213 232 240 222 193 173 163 159 161 163 166 173
317 320 320 319 318 317 319 320 319 317 318 317 315 314 313 309 303 299 295 292 290 286 278 268 264 256 235 228 225 219 211 207 210 220 213 195 175 163 150 144 149 157 165 171
321 321 321 323 322 321 321 320 318 319 319 318 318 318 317 317 315 312 309 306 305 300 289 275 263 248 232 230 222 207 200 199 202 206 192 178 161 153 149 144 141 145 155 161